H1 CPF 2 NER 2023 5 16 9 136 01 glonass127 H2 1106403 9127 37869 2023 5 16 0 0 0 2023 5 19 23 45 0 900 1 1 0 0 0 1 H9 10 0 60080 0.00000 0 73857.980 16923202.259 -19011115.655 10 0 60080 900.00000 0 -1246324.291 14844231.422 -20634763.315 10 0 60080 1800.00000 0 -2823131.261 12728880.798 -21854913.257 10 0 60080 2700.00000 0 -4633012.526 10641623.491 -22647658.874 10 0 60080 3600.00000 0 -6640665.691 8642670.654 -22997502.870 10 0 60080 4500.00000 0 -8800306.673 6785574.820 -22897665.067 10 0 60080 5400.00000 0 -11057397.507 5115133.602 -22350212.411 10 0 60080 6300.00000 0 -13350758.273 3665682.551 -21366008.929 10 0 60080 7200.00000 0 -15614973.171 2459848.766 -19964487.310 10 0 60080 8100.00000 0 -17782988.135 1507816.525 -18173247.873 10 0 60080 9000.00000 0 -19788789.424 807133.795 -16027494.311 10 0 60080 9900.00000 0 -21570049.404 343064.945 -13569319.178 10 0 60080 10800.00000 0 -23070627.717 89471.352 -10846855.144 10 0 60080 11700.00000 0 -24242822.759 10179.040 -7913310.717 10 0 60080 12600.00000 0 -25049279.612 60771.867 -4825911.331 10 0 60080 13500.00000 0 -25464475.885 190731.079 -1644768.312 10 0 60080 14400.00000 0 -25475725.281 345827.987 1568300.787 10 0 60080 15300.00000 0 -25083659.540 470666.574 4750976.443 10 0 60080 16200.00000 0 -24302171.550 511267.481 7841642.179 10 0 60080 17100.00000 0 -23157825.015 417584.062 10780567.169 10 0 60080 18000.00000 0 -21688758.070 145845.018 13511044.313 10 0 60080 18900.00000 0 -19943128.724 -339373.724 15980463.263 10 0 60080 19800.00000 0 -17977168.294 -1063433.357 18141299.701 10 0 60080 20700.00000 0 -15852924.245 -2040342.915 19952004.118 10 0 60080 21600.00000 0 -13635785.700 -3271948.840 21377775.605 10 0 60080 22500.00000 0 -11391892.855 -4747636.207 22391208.334 10 0 60080 23400.00000 0 -9185535.525 -6444553.731 22972800.610 10 0 60080 24300.00000 0 -7076645.943 -8328353.768 23111318.618 10 0 60080 25200.00000 0 -5118486.726 -10354417.986 22804009.114 10 0 60080 26100.00000 0 -3355627.106 -12469520.073 22056657.486 10 0 60080 27000.00000 0 -1822288.939 -14613859.341 20883489.724 10 0 60080 27900.00000 0 -541129.462 -16723384.076 19306919.104 10 0 60080 28800.00000 0 477489.460 -18732311.451 17357140.583 10 0 60080 29700.00000 0 1235715.160 -20575742.224 15071578.381 10 0 60080 30600.00000 0 1747891.317 -22192263.847 12494194.584 10 0 60080 31500.00000 0 2039730.065 -23526434.933 9674669.342 10 0 60080 32400.00000 0 2147001.902 -24531047.886 6667465.740 10 0 60080 33300.00000 0 2113796.528 -25169074.435 3530795.108 10 0 60080 34200.00000 0 1990426.151 -25415210.943 325501.077 10 0 60080 35100.00000 0 1831058.606 -25256956.201 -2886117.031 10 0 60080 36000.00000 0 1691179.902 -24695173.409 -6041518.904 10 0 60080 36900.00000 0 1624994.152 -23744109.466 -9079151.823 10 0 60080 37800.00000 0 1682872.452 -22430867.672 -11939668.037 10 0 60080 38700.00000 0 1908961.143 -20794353.357 -14567105.359 10 0 60080 39600.00000 0 2339053.811 -18883734.918 -16910005.756 10 0 60080 40500.00000 0 2998820.555 -16756483.958 -18922447.669 10 0 60080 41400.00000 0 3902472.982 -14476076.804 -20564969.552 10 0 60080 42300.00000 0 5051924.692 -12109454.748 -21805364.299 10 0 60080 43200.00000 0 6436485.493 -9724351.040 -22619327.188 10 0 60080 44100.00000 0 8033104.332 -7386598.587 -22990943.246 10 0 60080 45000.00000 0 9807151.927 -5157533.157 -22913003.594 10 0 60080 45900.00000 0 11713710.451 -3091602.594 -22387144.237 10 0 60080 46800.00000 0 13699315.537 -1234283.327 -21423804.804 10 0 60080 47700.00000 0 15704076.157 379608.120 -20042008.773 10 0 60080 48600.00000 0 17664081.655 1727138.449 -18268970.668 10 0 60080 49500.00000 0 19513993.011 2797965.964 -16139539.494 10 0 60080 50400.00000 0 21189707.738 3594506.754 -13695491.188 10 0 60080 51300.00000 0 22630985.101 4131554.948 -10984685.982 10 0 60080 52200.00000 0 23783920.665 4435376.805 -8060109.253 10 0 60080 53100.00000 0 24603166.128 4542320.762 -4978816.705 10 0 60080 54000.00000 0 25053802.028 4497005.928 -1800806.295 10 0 60080 54900.00000 0 25112786.204 4350168.891 1412159.619 10 0 60080 55800.00000 0 24769919.397 4156262.426 4597757.877 10 0 60080 56700.00000 0 24028290.109 3970909.357 7694310.035 10 0 60080 57600.00000 0 22904182.808 3848319.826 10641966.567 10 0 60080 58500.00000 0 21426455.951 3838780.799 13383847.608 10 0 60080 59400.00000 0 19635417.991 3986322.634 15867119.602 10 0 60080 60300.00000 0 17581249.724 4326659.308 18043989.069 10 0 60080 61200.00000 0 15322039.344 4885486.963 19872596.667 10 0 60080 62100.00000 0 12921511.579 5677210.258 21317796.887 10 0 60080 63000.00000 0 10446543.906 6704148.302 22351811.012 10 0 60080 63900.00000 0 7964570.803 7956252.426 22954743.059 10 0 60080 64800.00000 0 5540980.859 9411347.460 23114950.752 10 0 60080 65700.00000 0 3236611.491 11035887.281 22829265.659 10 0 60080 66600.00000 0 1105441.976 12786194.860 22103058.815 10 0 60080 67500.00000 0 -807422.440 14610137.720 20950150.292 10 0 60080 68400.00000 0 -2467393.951 16449172.114 19392563.365 10 0 60080 69300.00000 0 -3851606.343 18240674.123 17460126.229 10 0 60080 70200.00000 0 -4949630.355 19920463.761 15189926.533 10 0 60080 71100.00000 0 -5763670.155 21425419.580 12625626.542 10 0 60080 72000.00000 0 -6308231.611 22696076.590 9816649.266 10 0 60080 72900.00000 0 -6609274.677 23679099.866 6817248.592 10 0 60080 73800.00000 0 -6702883.558 24329530.164 3685478.989 10 0 60080 74700.00000 0 -6633508.769 24612706.159 482083.036 10 0 60080 75600.00000 0 -6451853.715 24505780.412 -2730682.766 10 0 60080 76500.00000 0 -6212494.210 23998762.393 -5890261.408 10 0 60080 77400.00000 0 -5971331.573 23095041.327 -8935023.853 10 0 60080 78300.00000 0 -5782988.004 21811363.408 -11805487.519 10 0 60080 79200.00000 0 -5698256.349 20177261.156 -14445499.231 10 0 60080 80100.00000 0 -5761714.790 18233956.333 -16803357.354 10 0 60080 81000.00000 0 -6009610.583 16032780.798 -18832848.830 10 0 60080 81900.00000 0 -6468105.727 13633180.745 -20494178.468 10 0 60080 82800.00000 0 -7151962.010 11100388.262 -21754770.065 10 0 60080 83700.00000 0 -8063723.916 8502858.733 -22589921.820 10 0 60080 84600.00000 0 -9193436.144 5909582.955 -22983301.782 10 0 60080 85500.00000 0 -10518909.137 3387388.362 -22927272.696 10 0 60081 0.00000 0 -12006521.860 998344.270 -22423039.582 10 0 60081 900.00000 0 -13612528.583 -1202620.130 -21480617.032 10 0 60081 1800.00000 0 -15284811.572 -3169781.382 -20118618.304 10 0 60081 2700.00000 0 -16965006.961 -4868288.837 -18363870.649 10 0 60081 3600.00000 0 -18590910.479 -6275361.176 -16250866.502 10 0 60081 4500.00000 0 -20099060.573 -7380965.508 -13821062.978 10 0 60081 5400.00000 0 -21427388.349 -8187953.202 -11122045.434 10 0 60081 6300.00000 0 -22517821.551 -8711650.342 -8206573.555 10 0 60081 7200.00000 0 -23318732.353 -8978923.967 -5131530.686 10 0 60081 8100.00000 0 -23787126.134 -9026767.488 -1956798.790 10 0 60081 9000.00000 0 -23890480.092 -8900468.720 1255917.559 10 0 60081 9900.00000 0 -23608156.030 -8651441.018 4444294.104 10 0 60081 10800.00000 0 -22932330.143 -8334811.467 7546592.905 10 0 60081 11700.00000 0 -21868403.236 -8006869.317 10502848.136 10 0 60081 12600.00000 0 -20434876.648 -7722482.690 13256009.444 10 0 60081 13500.00000 0 -18662701.264 -7532591.871 15753022.182 10 0 60081 14400.00000 0 -16594128.372 -7481883.362 17945825.629 10 0 60081 15300.00000 0 -14281111.145 -7606740.582 19792252.254 10 0 60081 16200.00000 0 -11783323.155 -7933555.155 21256813.297 10 0 60081 17100.00000 0 -9165875.191 -8477467.570 22311358.161 10 0 60081 18000.00000 0 -6496823.210 -9241588.386 22935597.247 10 0 60081 18900.00000 0 -3844568.032 -10216731.698 23117480.159 10 0 60081 19800.00000 0 -1275251.346 -11381672.046 22853423.320 10 0 60081 20700.00000 0 1149747.416 -12703915.034 22148383.193 10 0 60081 21600.00000 0 3376112.813 -14140951.425 21015773.471 10 0 60081 22500.00000 0 5358601.010 -15641945.024 19477226.765 10 0 60081 23400.00000 0 7062671.944 -17149787.028 17562203.617 10 0 60081 24300.00000 0 8465679.297 -18603434.250 15307454.018 10 0 60081 25200.00000 0 9557568.951 -19940436.549 12756339.067 10 0 60081 26100.00000 0 10341056.084 -21099550.062 9958023.054 10 0 60081 27000.00000 0 10831272.149 -22023328.329 6966548.823 10 0 60081 27900.00000 0 11054894.770 -22660583.127 3839811.916 10 0 60081 28800.00000 0 11048795.142 -22968610.933 638451.588 10 0 60081 29700.00000 0 10858258.188 -22915089.706 -2575320.922 10 0 60081 30600.00000 0 10534849.251 -22479563.461 -5738934.463 10 0 60081 31500.00000 0 10134016.930 -21654448.807 -8790686.315 10 0 60081 32400.00000 0 9712533.712 -20445517.438 -11670961.753 10 0 60081 33300.00000 0 9325883.966 -18871830.654 -14323419.305 10 0 60081 34200.00000 0 9025711.849 -16965125.519 -16696116.388 10 0 60081 35100.00000 0 8857439.852 -14768675.986 -18742550.983 10 0 60081 36000.00000 0 8858161.771 -12335675.205 -20422596.604 10 0 60081 36900.00000 0 9054902.338 -9727206.330 -21703310.020 10 0 60081 37800.00000 0 9463319.952 -7009887.130 -22559594.066 10 0 60081 38700.00000 0 10086909.653 -4253288.095 -22974701.111 10 0 60081 39600.00000 0 10916741.646 -1527233.618 -22940566.360 10 0 60081 40500.00000 0 11931747.173 1100899.139 -22457964.103 10 0 60081 41400.00000 0 13099539.623 3568769.192 -21536483.990 10 0 60081 42300.00000 0 14377735.323 5821439.093 -20194328.485 10 0 60081 43200.00000 0 15715716.803 7813421.255 -18457936.609 10 0 60081 44100.00000 0 17056762.205 9510318.079 -16361442.857 10 0 60081 45000.00000 0 18340448.862 10889988.589 -13945983.742 10 0 60081 45900.00000 0 19505227.645 11943195.035 -11258867.575 10 0 60081 46800.00000 0 20491057.809 12673705.516 -8352625.812 10 0 60081 47700.00000 0 21241990.065 13097852.033 -5283966.602 10 0 60081 48600.00000 0 21708588.567 13243566.637 -2112652.833 10 0 60081 49500.00000 0 21850090.084 13148940.246 1099671.912 10 0 60081 50400.00000 0 21636210.519 12860368.468 4290685.520 10 0 60081 51300.00000 0 21048524.453 12430365.537 7398593.712 10 0 60081 52200.00000 0 20081361.884 11915140.552 10363317.343 10 0 60081 53100.00000 0 18742186.757 11372039.155 13127638.319 10 0 60081 54000.00000 0 17051443.588 10856958.378 15638283.372 10 0 60081 54900.00000 0 15041880.233 10421842.453 17846926.705 10 0 60081 55800.00000 0 12757376.145 10112363.117 19711094.461 10 0 60081 56700.00000 0 10251325.036 9965879.633 21194956.183 10 0 60081 57600.00000 0 7584638.439 10009761.751 22269990.623 10 0 60081 58500.00000 0 4823451.354 10260143.776 22915515.458 10 0 60081 59400.00000 0 2036622.618 10721160.307 23119072.696 10 0 60081 60300.00000 0 -706869.588 11384694.842 22876663.736 10 0 60081 61200.00000 0 -3340532.576 12230651.927 22192830.153 10 0 60081 62100.00000 0 -5802859.879 13227742.576 21080578.488 10 0 60081 63000.00000 0 -8039627.326 14334752.183 19561149.456 10 0 60081 63900.00000 0 -10005891.608 15502240.572 17663634.287 10 0 60081 64800.00000 0 -11667609.986 16674606.099 15424443.269 10 0 60081 65700.00000 0 -13002814.413 17792430.453 12886633.997 10 0 60081 66600.00000 0 -14002290.831 18795008.530 10099109.475 10 0 60081 67500.00000 0 -14669734.222 19622959.222 7115698.807 10 0 60081 68400.00000 0 -15021371.230 20220808.445 3994135.823 10 0 60081 69300.00000 0 -15085064.199 20539435.688 794953.649 10 0 60081 70200.00000 0 -14898932.336 20538279.835 -2419684.538 10 0 60081 71100.00000 0 -14509546.449 20187209.048 -5587196.212 10 0 60081 72000.00000 0 -13969772.355 19467972.808 -8645807.661 10 0 60081 72900.00000 0 -13336353.818 18375171.244 -11535774.586 10 0 60081 73800.00000 0 -12667337.815 16916697.119 -14200569.621 10 0 60081 74700.00000 0 -12019452.476 15113628.248 -16588011.409 10 0 60081 75600.00000 0 -11445550.812 12999571.787 -18651310.881 10 0 60081 76500.00000 0 -10992230.977 10619485.630 -20350011.856 10 0 60081 77400.00000 0 -10697736.587 8028025.028 -21650805.360 10 0 60081 78300.00000 0 -10590228.576 5287483.350 -22528199.800 10 0 60081 79200.00000 0 -10686503.976 2465413.646 -22965032.426 10 0 60081 80100.00000 0 -10991217.461 -367968.280 -22952811.083 10 0 60081 81000.00000 0 -11496639.441 -3142489.160 -22491879.138 10 0 60081 81900.00000 0 -12182960.994 -5790717.253 -21591400.517 10 0 60081 82800.00000 0 -13019131.959 -8250540.767 -20269165.768 10 0 60081 83700.00000 0 -13964195.305 -10467517.104 -18551224.103 10 0 60081 84600.00000 0 -14969059.404 -12396894.553 -16471350.110 10 0 60081 85500.00000 0 -15978630.988 -14005222.603 -14070357.422 10 0 60082 0.00000 0 -16934216.283 -15271485.057 -11395275.056 10 0 60082 900.00000 0 -17776087.242 -16187711.694 -8498403.125 10 0 60082 1800.00000 0 -18446101.538 -16759044.536 -5436272.122 10 0 60082 2700.00000 0 -18890266.423 -17003262.002 -2268523.195 10 0 60082 3600.00000 0 -19061136.627 -16949783.209 943263.693 10 0 60082 4500.00000 0 -18919946.204 -16638198.888 4136771.115 10 0 60082 5400.00000 0 -18438385.632 -16116393.952 7250150.923 10 0 60082 6300.00000 0 -17599951.065 -15438343.364 10223213.020 10 0 60082 7200.00000 0 -16400811.108 -14661675.640 12998573.809 10 0 60082 8100.00000 0 -14850156.773 -13845107.065 15522743.467 10 0 60082 9000.00000 0 -12970021.708 -13045853.969 17747132.974 10 0 60082 9900.00000 0 -10794581.447 -12317130.340 19628963.729 10 0 60082 10800.00000 0 -8368961.301 -11705833.672 21132064.849 10 0 60082 11700.00000 0 -5747602.040 -11250513.596 22227545.377 10 0 60082 12600.00000 0 -2992249.877 -10979705.865 22894330.862 10 0 60082 13500.00000 0 -169651.860 -10910699.235 23119555.983 10 0 60082 14400.00000 0 2650950.795 -11048785.267 22898807.077 10 0 60082 15300.00000 0 5400430.960 -11387021.724 22236210.523 10 0 60082 16200.00000 0 8012380.986 -11906519.690 21144365.158 10 0 60082 17100.00000 0 10425610.601 -12577243.652 19644119.034 10 0 60082 18000.00000 0 12586436.536 -13359293.084 17764193.087 10 0 60082 18900.00000 0 14450670.878 -14204614.485 15540656.692 10 0 60082 19800.00000 0 15985226.620 -15059075.000 13016262.482 10 0 60082 20700.00000 0 17169273.605 -15864813.333 10239650.445 10 0 60082 21600.00000 0 17994895.889 -16562771.471 7264433.919 10 0 60082 22500.00000 0 18467221.468 -17095302.224 4148182.730 10 0 60082 23400.00000 0 18604016.971 -17408743.229 951321.333 10 0 60082 24300.00000 0 18434762.142 -17455848.279 -2264037.864 10 0 60082 25200.00000 0 17999241.067 -17197971.669 -5435303.768 10 0 60082 26100.00000 0 17345707.979 -16606910.638 -8500634.503 10 0 60082 27000.00000 0 16528704.158 -15666324.737 -11400158.973 10 0 60082 27900.00000 0 15606618.114 -14372668.371 -14077166.578 10 0 60082 28800.00000 0 14639092.996 -12735593.367 -16479239.713 10 0 60082 29700.00000 0 13684392.417 -10777801.034 -18559304.574 10 0 60082 30600.00000 0 12796838.251 -8534347.020 -20276577.367 10 0 60082 31500.00000 0 12024431.231 -6051426.112 -21597385.150 10 0 60082 32400.00000 0 11406757.457 -3384686.836 -22495843.328 10 0 60082 33300.00000 0 10973271.543 -597146.288 -22954375.067 10 0 60082 34200.00000 0 10742030.695 2243206.838 -22964061.439 10 0 60082 35100.00000 0 10718934.179 5066019.561 -22524815.044 10 0 60082 36000.00000 0 10897500.501 7801281.711 -21645373.784 10 0 60082 36900.00000 0 11259191.014 10382018.119 -20343115.567 10 0 60082 37800.00000 0 11774264.795 12746852.142 -18643698.648 10 0 60082 38700.00000 0 12403126.583 14842332.727 -16580536.162 10 0 60082 39600.00000 0 13098108.259 16624927.747 -14194116.941 10 0 60082 40500.00000 0 13805605.894 18062601.254 -11531187.915 10 0 60082 41400.00000 0 14468479.431 19135910.513 -8643816.201 10 0 60082 42300.00000 0 15028611.342 19838579.573 -5588351.287 10 0 60082 43200.00000 0 15429514.483 20177528.762 -2424309.476 10 0 60082 44100.00000 0 15618878.048 20172362.656 786796.106 10 0 60082 45000.00000 0 15550944.012 19854341.878 3982655.954 10 0 60082 45900.00000 0 15188614.474 19264885.541 7101371.189 10 0 60082 46800.00000 0 14505202.404 18453670.241 10082643.715 10 0 60082 47700.00000 0 13485753.847 17476407.661 12868927.138 10 0 60082 48600.00000 0 12127887.990 16392395.225 15406517.500 10 0 60082 49500.00000 0 10442121.633 15261942.677 17646564.655 10 0 60082 50400.00000 0 8451665.876 14143781.550 19545987.044 10 0 60082 51300.00000 0 6191704.239 13092564.257 21068274.816 10 0 60082 52200.00000 0 3708182.113 12156555.061 22184168.429 10 0 60082 53100.00000 0 1056156.918 11375606.862 22872202.078 10 0 60082 54000.00000 0 -1702224.543 10779505.751 23119103.507 10 0 60082 54900.00000 0 -4500040.367 10386750.310 22920043.966 10 0 60082 55800.00000 0 -7268106.832 10203815.173 22278734.171 10 0 60082 56700.00000 0 -9937590.129 10224929.003 21207364.324 10 0 60082 57600.00000 0 -12442611.834 10432376.525 19726388.397 10 0 60082 58500.00000 0 -14722743.180 10797313.243 17864155.165 10 0 60082 59400.00000 0 -16725287.048 11281060.755 15656390.820 10 0 60082 60300.00000 0 -18407254.360 11836830.839 13145540.433 10 0 60082 61200.00000 0 -19736953.131 12411808.570 10379978.146 10 0 60082 62100.00000 0 -20695123.432 12949509.302 7413098.573 10 0 60082 63000.00000 0 -21275569.505 13392312.123 4302304.532 10 0 60082 63900.00000 0 -21485260.591 13684063.971 1107908.834 10 0 60082 64800.00000 0 -21343893.895 13772644.469 -2108029.791 10 0 60082 65700.00000 0 -20882935.773 13612382.013 -5282914.482 10 0 60082 66600.00000 0 -20144179.421 13166216.778 -8354837.878 10 0 60082 67500.00000 0 -19177878.482 12407516.224 -11263804.617 10 0 60082 68400.00000 0 -18040534.591 11321462.686 -13952923.211 10 0 60082 69300.00000 0 -16792432.479 9905950.591 -16369541.892 10 0 60082 70200.00000 0 -15495027.738 8171951.631 -18466303.915 10 0 60082 71100.00000 0 -14208299.237 6143329.126 -20202099.310 10 0 60082 72000.00000 0 -12988180.193 3856106.725 -21542892.211 10 0 60082 72900.00000 0 -11884178.664 1357220.395 -22462405.641 10 0 60082 73800.00000 0 -10937290.113 -1297194.819 -22942648.864 10 0 60082 74700.00000 0 -10178291.959 -4043911.332 -22974275.938 10 0 60082 75600.00000 0 -9626493.191 -6815019.875 -22556768.008 10 0 60082 76500.00000 0 -9288992.175 -9540542.502 -21698435.843 10 0 60082 77400.00000 0 -9160473.406 -12151136.847 -20416243.193 10 0 60082 78300.00000 0 -9223550.392 -14580777.150 -18735455.482 10 0 60082 79200.00000 0 -9449638.048 -16769298.828 -16689122.208 10 0 60082 80100.00000 0 -9800315.070 -18664699.671 -14317404.976 10 0 60082 81000.00000 0 -10229115.718 -20225101.706 -11666766.314 10 0 60082 81900.00000 0 -10683672.259 -21420292.793 -8789037.235 10 0 60082 82800.00000 0 -11108114.741 -22232785.445 -5740383.835 10 0 60082 83700.00000 0 -11445624.346 -22658351.321 -2580195.027 10 0 60082 84600.00000 0 -11641030.840 -22706012.381 630085.338 10 0 60082 85500.00000 0 -11643343.579 -22397492.711 3828158.004 10 0 60083 0.00000 0 -11408109.312 -21766157.728 6952075.298 10 0 60083 900.00000 0 -10899497.977 -20855488.090 9941433.793 10 0 60083 1800.00000 0 -10092030.378 -19717155.849 12738525.998 10 0 60083 2700.00000 0 -8971876.452 -18408783.999 15289435.646 10 0 60083 3600.00000 0 -7537671.635 -16991484.700 17545053.124 10 0 60083 4500.00000 0 -5800818.625 -15527278.520 19461995.339 10 0 60083 5400.00000 0 -3785262.927 -14076501.250 21003414.636 10 0 60083 6300.00000 0 -1526751.802 -12695304.454 22139683.766 10 0 60083 7200.00000 0 928393.154 -11433351.469 22848946.134 10 0 60083 8100.00000 0 3524940.321 -10331802.135 23117522.820 10 0 60083 9000.00000 0 6200782.604 -9421667.682 22940169.969 10 0 60083 9900.00000 0 8889260.887 -8722602.263 22320182.353 10 0 60083 10800.00000 0 11521683.555 -8242180.158 21269341.006 10 0 60083 11700.00000 0 14029941.236 -7975688.347 19807705.070 10 0 60083 12600.00000 0 16349111.618 -7906443.596 17963250.190 10 0 60083 13500.00000 0 18419948.964 -8006622.096 15771358.174 10 0 60083 14400.00000 0 20191156.813 -8238568.877 13274165.087 10 0 60083 15300.00000 0 21621350.158 -8556534.362 10519777.496 10 0 60083 16200.00000 0 22680625.210 -8908767.452 7561369.274 10 0 60083 17100.00000 0 23351670.065 -9239879.003 4456173.917 10 0 60083 18000.00000 0 23630367.935 -9493377.431 1264390.013 10 0 60083 18900.00000 0 23525865.236 -9614269.870 -1951980.161 10 0 60083 19800.00000 0 23060099.083 -9551618.365 -5130336.880 10 0 60083 20700.00000 0 22266801.632 -9260941.401 -8208710.207 10 0 60083 21600.00000 0 21190021.152 -8706356.592 -11126983.345 10 0 60083 22500.00000 0 19882220.846 -7862370.584 -13828086.592 10 0 60083 23400.00000 0 18402035.117 -6715236.728 -16259136.482 10 0 60083 24300.00000 0 16811778.267 -5263819.300 -18372495.544 10 0 60083 25200.00000 0 15174811.860 -3519924.160 -20126729.578 10 0 60083 26100.00000 0 13552883.561 -1508078.787 -21487441.449 10 0 60083 27000.00000 0 12003551.697 735231.356 -22427963.140 10 0 60083 27900.00000 0 10577806.250 3162839.496 -22929891.011 10 0 60083 28800.00000 0 9317988.377 5718634.167 -22983452.721 10 0 60083 29700.00000 0 8256097.410 8339682.572 -22587698.177 10 0 60083 30600.00000 0 7412557.258 10958650.789 -21750510.817 10 0 60083 31500.00000 0 6795493.832 13506417.966 -20488439.610 10 0 60083 32400.00000 0 6400552.764 15914773.568 -18826356.097 10 0 60083 33300.00000 0 6211263.017 18119083.379 -16796944.677 10 0 60083 34200.00000 0 6199928.328 20060811.662 -14440037.862 10 0 60083 35100.00000 0 6329005.649 21689793.611 -11801811.529 10 0 60083 36000.00000 0 6552908.994 22966163.384 -8933857.980 10 0 60083 36900.00000 0 6820159.238 23861858.302 -5892157.018 10 0 60083 37800.00000 0 7075786.082 24361638.330 -2735967.028 10 0 60083 38700.00000 0 7263878.487 24463580.943 473340.701 10 0 60083 39600.00000 0 7330174.276 24179033.923 3673480.491 10 0 60083 40500.00000 0 7224578.987 23532031.486 6802459.695 10 0 60083 41400.00000 0 6903507.927 22558201.523 9799771.544 10 0 60083 42300.00000 0 6331953.680 21303212.491 12607550.896 10 0 60083 43200.00000 0 5485193.564 19820827.069 15171671.782 10 0 60083 44100.00000 0 4350067.005 18170645.045 17442767.398 10 0 60083 45000.00000 0 2925770.949 16415629.873 19377155.071 10 0 60083 45900.00000 0 1224141.314 14619521.168 20937650.951 10 0 60083 46800.00000 0 -730590.622 12844239.201 22094261.324 10 0 60083 47700.00000 0 -2902556.870 11147387.069 22824739.687 10 0 60083 48600.00000 0 -5245495.905 9579951.646 23115000.913 10 0 60083 49500.00000 0 -7704430.718 8184296.119 22959386.071 10 0 60083 50400.00000 0 -10217714.735 6992525.076 22360773.527 10 0 60083 51300.00000 0 -12719364.047 6025288.180 21330534.194 10 0 60083 52200.00000 0 -15141582.726 5291071.094 19888330.909 10 0 60083 53100.00000 0 -17417379.849 4786002.907 18061764.201 10 0 60083 54000.00000 0 -19483172.561 4494188.723 15885869.054 10 0 60083 54900.00000 0 -21281269.277 4388554.860 13402469.683 10 0 60083 55800.00000 0 -22762130.952 4432173.169 10659401.953 10 0 60083 56700.00000 0 -23886316.420 4580011.002 7709615.667 10 0 60083 57600.00000 0 -24626029.786 4781035.281 4610171.597 10 0 60083 58500.00000 0 -24966203.409 4980583.594 1421150.726 10 0 60083 59400.00000 0 -24905068.689 5122903.160 -1795504.419 10 0 60083 60300.00000 0 -24454187.924 5153750.297 -4977194.387 10 0 60083 61200.00000 0 -23637943.054 5022939.419 -8061889.637 10 0 60083 62100.00000 0 -22492500.270 4686731.632 -10989354.685 10 0 60083 63000.00000 0 -21064292.123 4109958.959 -13702344.110 10 0 60083 63900.00000 0 -19408079.894 3267790.828 -16147744.938 10 0 60083 64800.00000 0 -17584677.568 2147064.356 -18277640.790 10 0 60083 65700.00000 0 -15658433.825 747118.509 -20050274.612 10 0 60083 66600.00000 0 -13694579.391 -919906.444 -21430888.874 10 0 60083 67500.00000 0 -11756553.191 -2829319.517 -22392424.858 10 0 60083 68400.00000 0 -9903421.777 -4944671.019 -22916065.810 10 0 60083 69300.00000 0 -8187502.528 -7219053.679 -22991612.246 10 0 60083 70200.00000 0 -6652292.021 -9596858.342 -22617681.599 10 0 60083 71100.00000 0 -5330787.543 -12015909.916 -21801728.290 10 0 60083 72000.00000 0 -4244272.360 -14409892.733 -20559884.437 10 0 60083 72900.00000 0 -3401614.896 -16710962.081 -18916625.322 10 0 60083 73800.00000 0 -2799109.526 -18852430.902 -16904267.622 10 0 60083 74700.00000 0 -2420863.017 -20771417.645 -14562311.985 10 0 60083 75600.00000 0 -2239707.146 -22411343.488 -11936644.799 10 0 60083 76500.00000 0 -2218595.346 -23724174.073 -9078616.833 10 0 60083 77400.00000 0 -2312420.850 -24672312.381 -6044018.850 10 0 60083 78300.00000 0 -2470176.122 -25230064.864 -2891976.108 10 0 60083 79200.00000 0 -2637359.487 -25384621.533 316215.099 10 0 60083 80100.00000 0 -2758525.176 -25136511.696 3518284.924 10 0 60083 81000.00000 0 -2779867.791 -24499519.348 6652197.542 10 0 60083 81900.00000 0 -2651731.804 -23500064.894 9657345.303 10 0 60083 82800.00000 0 -2330940.718 -22176081.958 12475706.858 10 0 60083 83700.00000 0 -1782849.016 -20575438.533 15052948.077 10 0 60083 84600.00000 0 -983032.202 -18753969.920 17339446.303 10 0 60083 85500.00000 0 81454.246 -16773206.047 19291220.393 99